Year,Month,Day,Hour,Minute,Value (Times are PST for insolation in W/m^2)
2016,09,02,00,00,0.00
2016,09,02,00,01,0.00
2016,09,02,00,02,0.00
2016,09,02,00,03,0.00
2016,09,02,00,04,0.00
2016,09,02,00,05,0.00
2016,09,02,00,06,0.00
2016,09,02,00,07,0.00
2016,09,02,00,08,0.00
2016,09,02,00,09,0.00
2016,09,02,00,10,0.00
2016,09,02,00,11,0.00
2016,09,02,00,12,0.00
2016,09,02,00,13,0.00
2016,09,02,00,14,0.00
2016,09,02,00,15,0.00
2016,09,02,00,16,0.00
2016,09,02,00,17,0.00
2016,09,02,00,18,0.00
2016,09,02,00,19,0.00
2016,09,02,00,20,0.00
2016,09,02,00,21,0.00
2016,09,02,00,22,0.00
2016,09,02,00,23,0.00
2016,09,02,00,24,0.00
2016,09,02,00,25,0.00
2016,09,02,00,26,0.00
2016,09,02,00,27,0.00
2016,09,02,00,28,0.00
2016,09,02,00,29,0.00
2016,09,02,00,30,0.00
2016,09,02,00,31,0.00
2016,09,02,00,32,0.00
2016,09,02,00,33,0.00
2016,09,02,00,34,0.00
2016,09,02,00,35,0.00
2016,09,02,00,36,0.00
2016,09,02,00,37,0.00
2016,09,02,00,38,0.00
2016,09,02,00,39,0.00
2016,09,02,00,40,0.00
2016,09,02,00,41,0.00
2016,09,02,00,42,0.00
2016,09,02,00,43,0.00
2016,09,02,00,44,0.00
2016,09,02,00,45,0.00
2016,09,02,00,46,0.00
2016,09,02,00,47,0.00
2016,09,02,00,48,0.00
2016,09,02,00,49,0.00
2016,09,02,00,50,0.00
2016,09,02,00,51,0.00
2016,09,02,00,52,0.00
2016,09,02,00,53,0.00
2016,09,02,00,54,0.00
2016,09,02,00,55,0.00
2016,09,02,00,56,0.00
2016,09,02,00,57,0.00
2016,09,02,00,58,0.00
2016,09,02,00,59,0.00
2016,09,02,01,00,0.00
2016,09,02,01,01,0.00
2016,09,02,01,02,0.00
2016,09,02,01,03,0.00
2016,09,02,01,04,0.00
2016,09,02,01,05,0.00
2016,09,02,01,06,0.00
2016,09,02,01,07,0.00
2016,09,02,01,08,0.00
2016,09,02,01,09,0.00
2016,09,02,01,10,0.00
2016,09,02,01,11,0.00
2016,09,02,01,12,0.00
2016,09,02,01,13,0.00
2016,09,02,01,14,0.00
2016,09,02,01,15,0.00
2016,09,02,01,16,0.00
2016,09,02,01,17,0.00
2016,09,02,01,18,0.00
2016,09,02,01,19,0.00
2016,09,02,01,20,0.00
2016,09,02,01,21,0.00
2016,09,02,01,22,0.00
2016,09,02,01,23,0.00
2016,09,02,01,24,0.00
2016,09,02,01,25,0.00
2016,09,02,01,26,0.00
2016,09,02,01,27,0.00
2016,09,02,01,28,0.00
2016,09,02,01,29,0.00
2016,09,02,01,30,0.00
2016,09,02,01,31,0.00
2016,09,02,01,32,0.00
2016,09,02,01,33,0.00
2016,09,02,01,34,0.00
2016,09,02,01,35,0.00
2016,09,02,01,36,0.00
2016,09,02,01,37,0.00
2016,09,02,01,38,0.00
2016,09,02,01,39,0.00
2016,09,02,01,40,0.00
2016,09,02,01,41,0.00
2016,09,02,01,42,0.00
2016,09,02,01,43,0.00
2016,09,02,01,44,0.00
2016,09,02,01,45,0.00
2016,09,02,01,46,0.00
2016,09,02,01,47,0.00
2016,09,02,01,48,0.00
2016,09,02,01,49,0.00
2016,09,02,01,50,0.00
2016,09,02,01,51,0.00
2016,09,02,01,52,0.00
2016,09,02,01,53,0.00
2016,09,02,01,54,0.00
2016,09,02,01,55,0.00
2016,09,02,01,56,0.00
2016,09,02,01,57,0.00
2016,09,02,01,58,0.00
2016,09,02,01,59,0.00
2016,09,02,02,00,0.00
2016,09,02,02,01,0.00
2016,09,02,02,02,0.00
2016,09,02,02,03,0.00
2016,09,02,02,04,0.00
2016,09,02,02,05,0.00
2016,09,02,02,06,0.00
2016,09,02,02,07,0.00
2016,09,02,02,08,0.00
2016,09,02,02,09,0.00
2016,09,02,02,10,0.00
2016,09,02,02,11,0.00
2016,09,02,02,12,0.00
2016,09,02,02,13,0.00
2016,09,02,02,14,0.00
2016,09,02,02,15,0.00
2016,09,02,02,16,0.00
2016,09,02,02,17,0.00
2016,09,02,02,18,0.00
2016,09,02,02,19,0.00
2016,09,02,02,20,0.00
2016,09,02,02,21,0.00
2016,09,02,02,22,0.00
2016,09,02,02,23,0.00
2016,09,02,02,24,0.00
2016,09,02,02,25,0.00
2016,09,02,02,26,0.00
2016,09,02,02,27,0.00
2016,09,02,02,28,0.00
2016,09,02,02,29,0.00
2016,09,02,02,30,0.00
2016,09,02,02,31,0.00
2016,09,02,02,32,0.00
2016,09,02,02,33,0.00
2016,09,02,02,34,0.00
2016,09,02,02,35,0.00
2016,09,02,02,36,0.00
2016,09,02,02,37,0.00
2016,09,02,02,38,0.00
2016,09,02,02,39,0.00
2016,09,02,02,40,0.00
2016,09,02,02,41,0.00
2016,09,02,02,42,0.00
2016,09,02,02,43,0.00
2016,09,02,02,44,0.00
2016,09,02,02,45,0.00
2016,09,02,02,46,0.00
2016,09,02,02,47,0.00
2016,09,02,02,48,0.00
2016,09,02,02,49,0.00
2016,09,02,02,50,0.00
2016,09,02,02,51,0.00
2016,09,02,02,52,0.00
2016,09,02,02,53,0.00
2016,09,02,02,54,0.00
2016,09,02,02,55,0.00
2016,09,02,02,56,0.00
2016,09,02,02,57,0.00
2016,09,02,02,58,0.00
2016,09,02,02,59,0.00
2016,09,02,03,00,0.00
2016,09,02,03,01,0.00
2016,09,02,03,02,0.00
2016,09,02,03,03,0.00
2016,09,02,03,04,0.00
2016,09,02,03,05,0.00
2016,09,02,03,06,0.00
2016,09,02,03,07,0.00
2016,09,02,03,08,0.00
2016,09,02,03,09,0.00
2016,09,02,03,10,0.00
2016,09,02,03,11,0.00
2016,09,02,03,12,0.00
2016,09,02,03,13,0.00
2016,09,02,03,14,0.00
2016,09,02,03,15,0.00
2016,09,02,03,16,0.00
2016,09,02,03,17,0.00
2016,09,02,03,18,0.00
2016,09,02,03,19,0.00
2016,09,02,03,20,0.00
2016,09,02,03,21,0.00
2016,09,02,03,22,0.00
2016,09,02,03,23,0.00
2016,09,02,03,24,0.00
2016,09,02,03,25,0.00
2016,09,02,03,26,0.00
2016,09,02,03,27,0.00
2016,09,02,03,28,0.00
2016,09,02,03,29,0.00
2016,09,02,03,30,0.00
2016,09,02,03,31,0.00
2016,09,02,03,32,0.00
2016,09,02,03,33,0.00
2016,09,02,03,34,0.00
2016,09,02,03,35,0.00
2016,09,02,03,36,0.00
2016,09,02,03,37,0.00
2016,09,02,03,38,0.00
2016,09,02,03,39,0.00
2016,09,02,03,40,0.00
2016,09,02,03,41,0.00
2016,09,02,03,42,0.00
2016,09,02,03,43,0.00
2016,09,02,03,44,0.00
2016,09,02,03,45,0.00
2016,09,02,03,46,0.00
2016,09,02,03,47,0.00
2016,09,02,03,48,0.00
2016,09,02,03,49,0.00
2016,09,02,03,50,0.00
2016,09,02,03,51,0.00
2016,09,02,03,52,0.00
2016,09,02,03,53,0.00
2016,09,02,03,54,0.00
2016,09,02,03,55,0.00
2016,09,02,03,56,0.00
2016,09,02,03,57,0.00
2016,09,02,03,58,0.00
2016,09,02,03,59,0.00
2016,09,02,04,00,0.00
2016,09,02,04,01,0.00
2016,09,02,04,02,0.00
2016,09,02,04,03,0.00
2016,09,02,04,04,0.00
2016,09,02,04,05,0.00
2016,09,02,04,06,0.00
2016,09,02,04,07,0.00
2016,09,02,04,08,0.00
2016,09,02,04,09,0.00
2016,09,02,04,10,0.00
2016,09,02,04,11,0.00
2016,09,02,04,12,0.00
2016,09,02,04,13,0.00
2016,09,02,04,14,0.00
2016,09,02,04,15,0.00
2016,09,02,04,16,0.00
2016,09,02,04,17,0.00
2016,09,02,04,18,0.00
2016,09,02,04,19,0.00
2016,09,02,04,20,0.00
2016,09,02,04,21,0.00
2016,09,02,04,22,0.00
2016,09,02,04,23,0.00
2016,09,02,04,24,0.00
2016,09,02,04,25,0.00
2016,09,02,04,26,0.00
2016,09,02,04,27,0.00
2016,09,02,04,28,0.00
2016,09,02,04,29,0.00
2016,09,02,04,30,0.00
2016,09,02,04,31,0.00
2016,09,02,04,32,0.00
2016,09,02,04,33,0.00
2016,09,02,04,34,0.00
2016,09,02,04,35,0.00
2016,09,02,04,36,0.00
2016,09,02,04,37,0.00
2016,09,02,04,38,0.00
2016,09,02,04,39,0.00
2016,09,02,04,40,0.00
2016,09,02,04,41,0.00
2016,09,02,04,42,0.00
2016,09,02,04,43,0.00
2016,09,02,04,44,0.00
2016,09,02,04,45,0.00
2016,09,02,04,46,0.00
2016,09,02,04,47,0.00
2016,09,02,04,48,0.00
2016,09,02,04,49,0.00
2016,09,02,04,50,0.00
2016,09,02,04,51,0.00
2016,09,02,04,52,0.00
2016,09,02,04,53,0.00
2016,09,02,04,54,0.00
2016,09,02,04,55,0.00
2016,09,02,04,56,0.00
2016,09,02,04,57,0.00
2016,09,02,04,58,0.00
2016,09,02,04,59,0.00
2016,09,02,05,00,0.00
2016,09,02,05,01,0.00
2016,09,02,05,02,0.00
2016,09,02,05,03,0.00
2016,09,02,05,04,0.00
2016,09,02,05,05,0.00
2016,09,02,05,06,0.00
2016,09,02,05,07,0.00
2016,09,02,05,08,0.00
2016,09,02,05,09,0.00
2016,09,02,05,10,0.00
2016,09,02,05,11,0.00
2016,09,02,05,12,0.00
2016,09,02,05,13,0.00
2016,09,02,05,14,0.00
2016,09,02,05,15,0.00
2016,09,02,05,16,0.00
2016,09,02,05,17,0.00
2016,09,02,05,18,0.00
2016,09,02,05,19,0.00
2016,09,02,05,20,0.00
2016,09,02,05,21,0.00
2016,09,02,05,22,0.00
2016,09,02,05,23,0.00
2016,09,02,05,24,0.00
2016,09,02,05,25,0.00
2016,09,02,05,26,0.00
2016,09,02,05,27,0.00
2016,09,02,05,28,0.00
2016,09,02,05,29,0.00
2016,09,02,05,30,0.00
2016,09,02,05,31,0.00
2016,09,02,05,32,0.00
2016,09,02,05,33,0.00
2016,09,02,05,34,0.00
2016,09,02,05,35,0.00
2016,09,02,05,36,0.00
2016,09,02,05,37,0.00
2016,09,02,05,38,0.00
2016,09,02,05,39,0.00
2016,09,02,05,40,0.00
2016,09,02,05,41,0.00
2016,09,02,05,42,0.00
2016,09,02,05,43,0.00
2016,09,02,05,44,0.00
2016,09,02,05,45,0.00
2016,09,02,05,46,0.00
2016,09,02,05,47,0.00
2016,09,02,05,48,0.00
2016,09,02,05,49,0.00
2016,09,02,05,50,0.00
2016,09,02,05,51,0.00
2016,09,02,05,52,0.00
2016,09,02,05,53,0.00
2016,09,02,05,54,0.00
2016,09,02,05,55,0.00
2016,09,02,05,56,0.00
2016,09,02,05,57,0.00
2016,09,02,05,58,0.00
2016,09,02,05,59,0.00
2016,09,02,06,00,0.00
2016,09,02,06,01,0.00
2016,09,02,06,02,0.00
2016,09,02,06,03,0.00
2016,09,02,06,04,0.00
2016,09,02,06,05,0.00
2016,09,02,06,06,0.00
2016,09,02,06,07,0.00
2016,09,02,06,08,0.00
2016,09,02,06,09,0.00
2016,09,02,06,10,0.00
2016,09,02,06,11,0.00
2016,09,02,06,12,0.00
2016,09,02,06,13,0.00
2016,09,02,06,14,0.00
2016,09,02,06,15,0.00
2016,09,02,06,16,0.00
2016,09,02,06,17,0.00
2016,09,02,06,18,0.00
2016,09,02,06,19,0.00
2016,09,02,06,20,0.00
2016,09,02,06,21,0.00
2016,09,02,06,22,0.00
2016,09,02,06,23,0.00
2016,09,02,06,24,0.00
2016,09,02,06,25,0.00
2016,09,02,06,26,0.00
2016,09,02,06,27,0.00
2016,09,02,06,28,0.00
2016,09,02,06,29,0.00
2016,09,02,06,30,0.00
2016,09,02,06,31,0.00
2016,09,02,06,32,0.00
2016,09,02,06,33,0.00
2016,09,02,06,34,0.00
2016,09,02,06,35,0.00
2016,09,02,06,36,0.00
2016,09,02,06,37,0.00
2016,09,02,06,38,0.00
2016,09,02,06,39,0.00
2016,09,02,06,40,0.00
2016,09,02,06,41,0.00
2016,09,02,06,42,0.00
2016,09,02,06,43,0.00
2016,09,02,06,44,0.00
2016,09,02,06,45,0.00
2016,09,02,06,46,1.80
2016,09,02,06,47,5.00
2016,09,02,06,48,5.00
2016,09,02,06,49,5.90
2016,09,02,06,50,7.00
2016,09,02,06,51,7.00
2016,09,02,06,52,8.20
2016,09,02,06,53,9.00
2016,09,02,06,54,10.30
2016,09,02,06,55,11.00
2016,09,02,06,56,11.00
2016,09,02,06,57,11.80
2016,09,02,06,58,12.00
2016,09,02,06,59,12.00
2016,09,02,07,00,13.80
2016,09,02,07,01,14.00
2016,09,02,07,02,16.00
2016,09,02,07,03,16.10
2016,09,02,07,04,18.00
2016,09,02,07,05,18.20
2016,09,02,07,06,19.50
2016,09,02,07,07,21.50
2016,09,02,07,08,23.00
2016,09,02,07,09,23.60
2016,09,02,07,10,25.40
2016,09,02,07,11,26.00
2016,09,02,07,12,26.90
2016,09,02,07,13,28.00
2016,09,02,07,14,28.00
2016,09,02,07,15,28.00
2016,09,02,07,16,28.00
2016,09,02,07,17,28.00
2016,09,02,07,18,28.00
2016,09,02,07,19,28.00
2016,09,02,07,20,28.00
2016,09,02,07,21,29.60
2016,09,02,07,22,30.00
2016,09,02,07,23,30.00
2016,09,02,07,24,30.00
2016,09,02,07,25,30.00
2016,09,02,07,26,30.20
2016,09,02,07,27,32.00
2016,09,02,07,28,32.00
2016,09,02,07,29,32.00
2016,09,02,07,30,32.20
2016,09,02,07,31,33.00
2016,09,02,07,32,32.70
2016,09,02,07,33,32.00
2016,09,02,07,34,32.00
2016,09,02,07,35,32.00
2016,09,02,07,36,32.00
2016,09,02,07,37,32.00
2016,09,02,07,38,32.00
2016,09,02,07,39,32.00
2016,09,02,07,40,32.70
2016,09,02,07,41,33.00
2016,09,02,07,42,33.00
2016,09,02,07,43,34.60
2016,09,02,07,44,36.70
2016,09,02,07,45,37.00
2016,09,02,07,46,38.80
2016,09,02,07,47,40.00
2016,09,02,07,48,42.10
2016,09,02,07,49,44.00
2016,09,02,07,50,44.30
2016,09,02,07,51,46.00
2016,09,02,07,52,46.20
2016,09,02,07,53,47.00
2016,09,02,07,54,47.60
2016,09,02,07,55,49.00
2016,09,02,07,56,49.80
2016,09,02,07,57,51.00
2016,09,02,07,58,51.90
2016,09,02,07,59,53.50
2016,09,02,08,00,55.10
2016,09,02,08,01,57.20
2016,09,02,08,02,59.20
2016,09,02,08,03,61.30
2016,09,02,08,04,62.70
2016,09,02,08,05,66.00
2016,09,02,08,06,68.60
2016,09,02,08,07,69.80
2016,09,02,08,08,70.00
2016,09,02,08,09,70.00
2016,09,02,08,10,70.00
2016,09,02,08,11,69.00
2016,09,02,08,12,68.80
2016,09,02,08,13,67.00
2016,09,02,08,14,67.00
2016,09,02,08,15,67.00
2016,09,02,08,16,67.50
2016,09,02,08,17,69.00
2016,09,02,08,18,69.30
2016,09,02,08,19,70.80
2016,09,02,08,20,72.80
2016,09,02,08,21,74.90
2016,09,02,08,22,76.00
2016,09,02,08,23,76.60
2016,09,02,08,24,77.00
2016,09,02,08,25,78.20
2016,09,02,08,26,80.30
2016,09,02,08,27,82.40
2016,09,02,08,28,83.80
2016,09,02,08,29,87.20
2016,09,02,08,30,88.00
2016,09,02,08,31,93.90
2016,09,02,08,32,101.30
2016,09,02,08,33,111.00
2016,09,02,08,34,125.20
2016,09,02,08,35,130.70
2016,09,02,08,36,138.30
2016,09,02,08,37,151.10
2016,09,02,08,38,163.40
2016,09,02,08,39,162.00
2016,09,02,08,40,152.40
2016,09,02,08,41,151.00
2016,09,02,08,42,179.80
2016,09,02,08,43,202.60
2016,09,02,08,44,179.20
2016,09,02,08,45,207.50
2016,09,02,08,46,223.70
2016,09,02,08,47,220.40
2016,09,02,08,48,193.60
2016,09,02,08,49,173.40
2016,09,02,08,50,167.10
2016,09,02,08,51,166.50
2016,09,02,08,52,172.60
2016,09,02,08,53,177.20
2016,09,02,08,54,178.90
2016,09,02,08,55,185.30
2016,09,02,08,56,189.80
2016,09,02,08,57,204.80
2016,09,02,08,58,218.50
2016,09,02,08,59,206.00
2016,09,02,09,00,204.90
2016,09,02,09,01,197.80
2016,09,02,09,02,192.80
2016,09,02,09,03,192.00
2016,09,02,09,04,192.00
2016,09,02,09,05,193.20
2016,09,02,09,06,195.80
2016,09,02,09,07,197.00
2016,09,02,09,08,198.50
2016,09,02,09,09,202.20
2016,09,02,09,10,205.20
2016,09,02,09,11,207.90
2016,09,02,09,12,210.30
2016,09,02,09,13,211.00
2016,09,02,09,14,209.50
2016,09,02,09,15,205.00
2016,09,02,09,16,199.80
2016,09,02,09,17,193.60
2016,09,02,09,18,190.30
2016,09,02,09,19,186.00
2016,09,02,09,20,182.80
2016,09,02,09,21,178.90
2016,09,02,09,22,177.70
2016,09,02,09,23,175.60
2016,09,02,09,24,173.60
2016,09,02,09,25,171.80
2016,09,02,09,26,169.80
2016,09,02,09,27,166.30
2016,09,02,09,28,163.80
2016,09,02,09,29,160.30
2016,09,02,09,30,156.60
2016,09,02,09,31,153.00
2016,09,02,09,32,149.40
2016,09,02,09,33,145.60
2016,09,02,09,34,142.70
2016,09,02,09,35,141.40
2016,09,02,09,36,141.00
2016,09,02,09,37,141.80
2016,09,02,09,38,143.60
2016,09,02,09,39,145.70
2016,09,02,09,40,146.00
2016,09,02,09,41,147.80
2016,09,02,09,42,146.10
2016,09,02,09,43,145.80
2016,09,02,09,44,142.00
2016,09,02,09,45,142.20
2016,09,02,09,46,144.00
2016,09,02,09,47,144.00
2016,09,02,09,48,143.50
2016,09,02,09,49,141.20
2016,09,02,09,50,138.30
2016,09,02,09,51,135.80
2016,09,02,09,52,133.10
2016,09,02,09,53,130.10
2016,09,02,09,54,126.50
2016,09,02,09,55,123.90
2016,09,02,09,56,121.90
2016,09,02,09,57,120.40
2016,09,02,09,58,120.00
2016,09,02,09,59,120.00
2016,09,02,10,00,118.50
2016,09,02,10,01,118.00
2016,09,02,10,02,118.00
2016,09,02,10,03,116.20
2016,09,02,10,04,116.00
2016,09,02,10,05,116.00
2016,09,02,10,06,118.00
2016,09,02,10,07,118.20
2016,09,02,10,08,121.30
2016,09,02,10,09,123.60
2016,09,02,10,10,127.20
2016,09,02,10,11,129.00
2016,09,02,10,12,132.60
2016,09,02,10,13,134.40
2016,09,02,10,14,135.80
2016,09,02,10,15,137.80
2016,09,02,10,16,139.90
2016,09,02,10,17,141.00
2016,09,02,10,18,141.60
2016,09,02,10,19,143.20
2016,09,02,10,20,145.20
2016,09,02,10,21,146.00
2016,09,02,10,22,146.00
2016,09,02,10,23,146.00
2016,09,02,10,24,144.40
2016,09,02,10,25,142.40
2016,09,02,10,26,142.00
2016,09,02,10,27,141.10
2016,09,02,10,28,137.20
2016,09,02,10,29,134.90
2016,09,02,10,30,134.00
2016,09,02,10,31,134.00
2016,09,02,10,32,134.40
2016,09,02,10,33,137.40
2016,09,02,10,34,139.50
2016,09,02,10,35,141.30
2016,09,02,10,36,143.40
2016,09,02,10,37,146.80
2016,09,02,10,38,150.00
2016,09,02,10,39,154.40
2016,09,02,10,40,159.00
2016,09,02,10,41,164.50
2016,09,02,10,42,167.00
2016,09,02,10,43,174.80
2016,09,02,10,44,183.90
2016,09,02,10,45,192.30
2016,09,02,10,46,203.20
2016,09,02,10,47,212.40
2016,09,02,10,48,225.10
2016,09,02,10,49,235.60
2016,09,02,10,50,248.80
2016,09,02,10,51,261.40
2016,09,02,10,52,274.50
2016,09,02,10,53,286.20
2016,09,02,10,54,298.10
2016,09,02,10,55,308.00
2016,09,02,10,56,313.10
2016,09,02,10,57,336.50
2016,09,02,10,58,368.00
2016,09,02,10,59,420.90
2016,09,02,11,00,460.20
2016,09,02,11,01,507.70
2016,09,02,11,02,513.50
2016,09,02,11,03,528.00
2016,09,02,11,04,587.80
2016,09,02,11,05,617.00
2016,09,02,11,06,617.00
2016,09,02,11,07,826.40
2016,09,02,11,08,878.90
2016,09,02,11,09,879.50
2016,09,02,11,10,849.20
2016,09,02,11,11,840.00
2016,09,02,11,12,840.00
2016,09,02,11,13,563.70
2016,09,02,11,14,500.80
2016,09,02,11,15,411.60
2016,09,02,11,16,388.50
2016,09,02,11,17,416.90
2016,09,02,11,18,388.60
2016,09,02,11,19,330.40
2016,09,02,11,20,326.80
2016,09,02,11,21,310.40
2016,09,02,11,22,311.10
2016,09,02,11,23,311.40
2016,09,02,11,24,304.20
2016,09,02,11,25,303.80
2016,09,02,11,26,299.00
2016,09,02,11,27,288.10
2016,09,02,11,28,285.00
2016,09,02,11,29,286.20
2016,09,02,11,30,283.00
2016,09,02,11,31,274.60
2016,09,02,11,32,251.00
2016,09,02,11,33,221.90
2016,09,02,11,34,204.70
2016,09,02,11,35,200.30
2016,09,02,11,36,205.40
2016,09,02,11,37,208.90
2016,09,02,11,38,218.90
2016,09,02,11,39,240.00
2016,09,02,11,40,270.00
2016,09,02,11,41,287.60
2016,09,02,11,42,291.00
2016,09,02,11,43,294.00
2016,09,02,11,44,370.20
2016,09,02,11,45,548.00
2016,09,02,11,46,398.40
2016,09,02,11,47,168.40
2016,09,02,11,48,155.10
2016,09,02,11,49,145.50
2016,09,02,11,50,141.40
2016,09,02,11,51,138.80
2016,09,02,11,52,135.80
2016,09,02,11,53,135.00
2016,09,02,11,54,132.90
2016,09,02,11,55,129.00
2016,09,02,11,56,125.60
2016,09,02,11,57,120.80
2016,09,02,11,58,114.10
2016,09,02,11,59,113.00
2016,09,02,12,00,111.30
2016,09,02,12,01,116.40
2016,09,02,12,02,123.90
2016,09,02,12,03,132.00
2016,09,02,12,04,132.00
2016,09,02,12,05,194.20
2016,09,02,12,06,462.80
2016,09,02,12,07,522.00
2016,09,02,12,08,556.20
2016,09,02,12,09,636.00
2016,09,02,12,10,518.60
2016,09,02,12,11,336.80
2016,09,02,12,12,300.00
2016,09,02,12,13,309.40
2016,09,02,12,14,322.00
2016,09,02,12,15,458.80
2016,09,02,12,16,550.00
2016,09,02,12,17,767.00
2016,09,02,12,18,876.50
2016,09,02,12,19,896.40
2016,09,02,12,20,901.70
2016,09,02,12,21,902.00
2016,09,02,12,22,862.40
2016,09,02,12,23,909.40
2016,09,02,12,24,920.10
2016,09,02,12,25,958.80
2016,09,02,12,26,928.00
2016,09,02,12,27,898.40
2016,09,02,12,28,763.60
2016,09,02,12,29,713.80
2016,09,02,12,30,759.50
2016,09,02,12,31,756.00
2016,09,02,12,32,612.40
2016,09,02,12,33,375.40
2016,09,02,12,34,343.00
2016,09,02,12,35,343.00
2016,09,02,12,36,363.90
2016,09,02,12,37,381.00
2016,09,02,12,38,381.00
2016,09,02,12,39,676.10
2016,09,02,12,40,856.00
2016,09,02,12,41,865.00
2016,09,02,12,42,945.00
2016,09,02,12,43,965.00
2016,09,02,12,44,681.10
2016,09,02,12,45,631.00
2016,09,02,12,46,838.10
2016,09,02,12,47,921.20
2016,09,02,12,48,892.10
2016,09,02,12,49,949.00
2016,09,02,12,50,959.10
2016,09,02,12,51,957.60
2016,09,02,12,52,955.80
2016,09,02,12,53,902.20
2016,09,02,12,54,865.20
2016,09,02,12,55,791.00
2016,09,02,12,56,777.00
2016,09,02,12,57,799.50
2016,09,02,12,58,805.00
2016,09,02,12,59,801.20
2016,09,02,13,00,794.20
2016,09,02,13,01,746.20
2016,09,02,13,02,722.00
2016,09,02,13,03,598.10
2016,09,02,13,04,545.00
2016,09,02,13,05,545.00
2016,09,02,13,06,628.30
2016,09,02,13,07,643.00
2016,09,02,13,08,643.00
2016,09,02,13,09,497.30
2016,09,02,13,10,490.20
2016,09,02,13,11,457.10
2016,09,02,13,12,474.10
2016,09,02,13,13,457.80
2016,09,02,13,14,463.40
2016,09,02,13,15,469.00
2016,09,02,13,16,469.00
2016,09,02,13,17,493.10
2016,09,02,13,18,545.60
2016,09,02,13,19,557.00
2016,09,02,13,20,557.00
2016,09,02,13,21,557.00
2016,09,02,13,22,557.00
2016,09,02,13,23,562.20
2016,09,02,13,24,571.80
2016,09,02,13,25,556.80
2016,09,02,13,26,600.90
2016,09,02,13,27,624.00
2016,09,02,13,28,624.00
2016,09,02,13,29,499.90
2016,09,02,13,30,478.00
2016,09,02,13,31,532.00
2016,09,02,13,32,538.00
2016,09,02,13,33,387.00
2016,09,02,13,34,316.00
2016,09,02,13,35,335.60
2016,09,02,13,36,345.00
2016,09,02,13,37,392.80
2016,09,02,13,38,590.90
2016,09,02,13,39,617.00
2016,09,02,13,40,582.00
2016,09,02,13,41,519.80
2016,09,02,13,42,524.00
2016,09,02,13,43,524.00
2016,09,02,13,44,524.00
2016,09,02,13,45,667.00
2016,09,02,13,46,774.10
2016,09,02,13,47,766.00
2016,09,02,13,48,766.00
2016,09,02,13,49,753.90
2016,09,02,13,50,719.80
2016,09,02,13,51,698.80
2016,09,02,13,52,722.40
2016,09,02,13,53,759.60
2016,09,02,13,54,772.20
2016,09,02,13,55,770.20
2016,09,02,13,56,760.90
2016,09,02,13,57,759.00
2016,09,02,13,58,759.00
2016,09,02,13,59,758.80
2016,09,02,14,00,758.60
2016,09,02,14,01,760.50
2016,09,02,14,02,758.70
2016,09,02,14,03,758.30
2016,09,02,14,04,759.00
2016,09,02,14,05,755.60
2016,09,02,14,06,758.70
2016,09,02,14,07,768.00
2016,09,02,14,08,769.10
2016,09,02,14,09,767.20
2016,09,02,14,10,765.00
2016,09,02,14,11,763.70
2016,09,02,14,12,764.40
2016,09,02,14,13,765.80
2016,09,02,14,14,765.20
2016,09,02,14,15,765.80
2016,09,02,14,16,766.00
2016,09,02,14,17,765.10
2016,09,02,14,18,761.20
2016,09,02,14,19,758.80
2016,09,02,14,20,755.80
2016,09,02,14,21,754.00
2016,09,02,14,22,754.80
2016,09,02,14,23,758.00
2016,09,02,14,24,758.20
2016,09,02,14,25,761.10
2016,09,02,14,26,766.00
2016,09,02,14,27,773.20
2016,09,02,14,28,784.90
2016,09,02,14,29,786.00
2016,09,02,14,30,784.00
2016,09,02,14,31,782.00
2016,09,02,14,32,782.00
2016,09,02,14,33,644.80
2016,09,02,14,34,612.60
2016,09,02,14,35,666.40
2016,09,02,14,36,698.50
2016,09,02,14,37,706.50
2016,09,02,14,38,674.20
2016,09,02,14,39,612.00
2016,09,02,14,40,603.00
2016,09,02,14,41,469.00
2016,09,02,14,42,476.00
2016,09,02,14,43,509.30
2016,09,02,14,44,805.20
2016,09,02,14,45,781.20
2016,09,02,14,46,760.70
2016,09,02,14,47,744.10
2016,09,02,14,48,730.90
2016,09,02,14,49,723.70
2016,09,02,14,50,717.40
2016,09,02,14,51,714.60
2016,09,02,14,52,714.00
2016,09,02,14,53,712.00
2016,09,02,14,54,708.90
2016,09,02,14,55,707.50
2016,09,02,14,56,707.00
2016,09,02,14,57,704.40
2016,09,02,14,58,700.90
2016,09,02,14,59,700.00
2016,09,02,15,00,698.40
2016,09,02,15,01,696.30
2016,09,02,15,02,694.20
2016,09,02,15,03,693.00
2016,09,02,15,04,691.10
2016,09,02,15,05,689.00
2016,09,02,15,06,687.00
2016,09,02,15,07,686.00
2016,09,02,15,08,685.70
2016,09,02,15,09,683.60
2016,09,02,15,10,682.00
2016,09,02,15,11,681.10
2016,09,02,15,12,678.30
2016,09,02,15,13,677.00
2016,09,02,15,14,676.10
2016,09,02,15,15,674.10
2016,09,02,15,16,671.60
2016,09,02,15,17,668.90
2016,09,02,15,18,666.80
2016,09,02,15,19,666.00
2016,09,02,15,20,664.60
2016,09,02,15,21,663.30
2016,09,02,15,22,661.50
2016,09,02,15,23,659.50
2016,09,02,15,24,657.40
2016,09,02,15,25,657.00
2016,09,02,15,26,657.00
2016,09,02,15,27,654.20
2016,09,02,15,28,653.90
2016,09,02,15,29,651.80
2016,09,02,15,30,650.00
2016,09,02,15,31,649.40
2016,09,02,15,32,647.00
2016,09,02,15,33,646.50
2016,09,02,15,34,644.40
2016,09,02,15,35,643.00
2016,09,02,15,36,642.60
2016,09,02,15,37,642.00
2016,09,02,15,38,641.10
2016,09,02,15,39,639.00
2016,09,02,15,40,635.40
2016,09,02,15,41,626.40
2016,09,02,15,42,627.20
2016,09,02,15,43,634.50
2016,09,02,15,44,633.90
2016,09,02,15,45,631.50
2016,09,02,15,46,629.50
2016,09,02,15,47,628.20
2016,09,02,15,48,624.60
2016,09,02,15,49,624.00
2016,09,02,15,50,619.20
2016,09,02,15,51,618.80
2016,09,02,15,52,615.00
2016,09,02,15,53,614.50
2016,09,02,15,54,611.70
2016,09,02,15,55,609.60
2016,09,02,15,56,607.50
2016,09,02,15,57,605.70
2016,09,02,15,58,605.00
2016,09,02,15,59,605.00
2016,09,02,16,00,605.00
2016,09,02,16,01,605.00
2016,09,02,16,02,605.00
2016,09,02,16,03,601.80
2016,09,02,16,04,598.00
2016,09,02,16,05,598.60
2016,09,02,16,06,600.30
2016,09,02,16,07,578.90
2016,09,02,16,08,594.50
2016,09,02,16,09,601.00
2016,09,02,16,10,601.00
2016,09,02,16,11,605.30
2016,09,02,16,12,587.10
2016,09,02,16,13,611.60
2016,09,02,16,14,617.60
2016,09,02,16,15,629.00
2016,09,02,16,16,562.40
2016,09,02,16,17,185.00
2016,09,02,16,18,185.00
2016,09,02,16,19,181.00
2016,09,02,16,20,169.00
2016,09,02,16,21,157.90
2016,09,02,16,22,132.00
2016,09,02,16,23,138.80
2016,09,02,16,24,149.00
2016,09,02,16,25,149.00
2016,09,02,16,26,149.00
2016,09,02,16,27,149.00
2016,09,02,16,28,333.80
2016,09,02,16,29,457.00
2016,09,02,16,30,335.60
2016,09,02,16,31,261.70
2016,09,02,16,32,218.20
2016,09,02,16,33,238.00
2016,09,02,16,34,246.00
2016,09,02,16,35,212.70
2016,09,02,16,36,209.00
2016,09,02,16,37,226.10
2016,09,02,16,38,552.00
2016,09,02,16,39,552.00
2016,09,02,16,40,552.00
2016,09,02,16,41,529.80
2016,09,02,16,42,441.00
2016,09,02,16,43,474.90
2016,09,02,16,44,551.50
2016,09,02,16,45,542.00
2016,09,02,16,46,531.20
2016,09,02,16,47,525.70
2016,09,02,16,48,521.50
2016,09,02,16,49,515.90
2016,09,02,16,50,511.30
2016,09,02,16,51,506.40
2016,09,02,16,52,500.80
2016,09,02,16,53,496.90
2016,09,02,16,54,493.00
2016,09,02,16,55,489.60
2016,09,02,16,56,487.40
2016,09,02,16,57,483.40
2016,09,02,16,58,483.00
2016,09,02,16,59,483.00
2016,09,02,17,00,482.00
2016,09,02,17,01,482.10
2016,09,02,17,02,483.30
2016,09,02,17,03,484.60
2016,09,02,17,04,483.00
2016,09,02,17,05,448.80
2016,09,02,17,06,346.00
2016,09,02,17,07,346.00
2016,09,02,17,08,388.70
2016,09,02,17,09,468.00
2016,09,02,17,10,468.00
2016,09,02,17,11,314.00
2016,09,02,17,12,130.90
2016,09,02,17,13,103.20
2016,09,02,17,14,102.40